RH
19 18 19 20 24 27 28 30 31 31 35 34 36 40 41 38 38 39 42 39 40 40 37 41 43 45 51 59 63 58 65 64 75 85 88 88 82 81 68 70 71 70 73 74
16 19 18 23 27 27 29 30 28 31 36 33 44 38 41 42 40 36 36 38 39 38 36 37 39 41 47 56 62 57 66 73 65 83 85 81 77 78 73 67 68 70 72 74
17 17 17 23 28 27 26 24 30 33 32 38 33 44 47 42 40 38 36 31 30 31 37 35 38 37 45 52 61 68 55 47 61 73 82 76 69 70 71 66 66 70 74 72
14 13 15 18 20 23 21 26 30 31 29 32 36 28 40 43 43 40 35 34 32 29 32 36 38 42 43 48 58 68 50 51 62 73 85 84 70 68 74 72 64 63 72 63
15 14 15 15 14 22 20 25 28 32 32 32 33 34 29 43 46 41 37 33 32 30 29 33 37 40 44 49 57 63 68 56 65 65 74 83 80 61 69 67 67 61 69 70
12 10 11 10 19 21 25 22 25 29 29 26 30 34 25 27 28 29 30 30 31 30 30 33 37 42 46 50 56 62 77 50 54 64 61 79 64 79 83 84 83 84 77 92
11 10 9 13 13 23 22 21 26 26 22 23 34 33 23 21 24 25 24 26 26 28 30 33 40 45 46 50 55 59 71 67 52 56 71 76 79 81 69 84 81 85 89 92
12 14 11 17 14 19 24 21 25 29 26 25 34 24 21 21 22 24 25 24 27 28 27 32 39 45 48 51 55 59 68 65 57 62 71 73 82 80 77 77 80 83 84 88
14 15 12 19 21 19 24 26 20 27 36 29 25 24 21 22 24 23 24 26 24 25 28 33 39 45 49 52 57 59 66 65 69 67 64 73 84 79 76 76 75 84 89 91
13 16 11 13 14 16 19 20 22 25 27 20 18 25 17 20 21 24 25 25 26 32 36 37 38 43 48 49 55 60 63 63 65 66 71 73 77 78 81 86 84 81 88 90
11 11 12 10 14 14 20 20 23 22 23 20 16 12 23 23 21 20 20 22 24 33 34 39 39 43 46 49 52 61 65 64 62 62 63 68 74 78 86 84 86 84 88 84
10 10 13 10 10 13 16 17 16 20 27 29 23 11 17 20 19 24 23 22 25 38 38 38 42 46 48 51 51 56 60 61 65 66 73 73 79 81 82 86 86 80 79 80
10 11 13 11 10 11 10 15 15 16 18 30 16 10 15 22 26 24 23 25 30 38 44 43 45 50 52 53 55 55 61 63 63 74 77 76 80 80 81 87 90 86 83 81
13 10 11 12 12 12 13 12 15 11 14 23 18 12 12 30 33 29 32 29 30 39 47 46 49 51 58 62 65 66 65 65 73 75 74 78 79 78 81 89 90 89 86 80
8 10 13 11 11 11 10 11 13 11 12 10 12 14 32 42 45 41 38 35 36 39 46 48 50 56 63 67 72 74 69 74 74 80 76 82 87 93 96 90 87 87 87 81
10 13 14 12 11 12 18 17 11 11 12 18 16 37 44 52 47 42 42 40 40 41 44 46 50 54 58 61 70 71 74 74 79 82 79 92 100 100 98 96 96 95 85 85
12 15 16 14 13 18 20 25 23 32 20 23 26 38 47 51 58 64 55 54 59 59 60 58 55 53 56 60 66 70 74 81 88 96 100 100 100 99 92 82 74 90 88 90
18 22 20 17 20 18 25 32 36 40 42 37 38 45 49 56 64 62 62 59 62 64 65 67 67 73 75 67 71 78 87 95 100 100 100 100 91 90 86 70 57 57 89 80
13 20 26 21 18 35 42 39 36 32 43 40 45 51 49 48 39 56 66 65 67 69 70 73 75 86 90 90 93 97 100 100 100 100 97 96 99 92 94 80 83 92 96 98
18 23 18 35 30 33 25 32 27 28 41 35 34 38 41 41 27 32 66 65 65 73 82 82 83 88 94 97 96 97 98 98 97 90 86 81 73 87 94 94 94 92 98 95
23 26 20 25 25 25 24 29 28 32 27 34 32 33 39 35 38 58 65 65 70 78 85 88 95 96 98 96 93 90 82 80 81 86 92 98 99 98 99 100 97 95 99 100
24 24 25 33 32 23 28 34 30 28 36 34 35 37 39 46 63 68 64 67 68 78 90 91 95 95 99 93 86 84 86 83 96 89 98 99 96 99 97 98 98 98 100 100
25 22 23 20 21 39 35 32 31 30 38 40 39 40 46 59 67 64 69 71 72 83 96 87 85 88 93 90 86 84 100 100 97 84 88 90 96 96 97 99 99 100 100 100
39 41 35 38 44 41 38 39 34 34 35 41 38 44 48 55 63 67 68 72 75 75 76 74 74 78 82 86 88 89 91 96 95 89 91 98 99 100 99 98 99 97 99 100
32 40 49 56 50 43 42 36 37 46 46 49 52 54 54 58 67 76 75 75 75 78 80 78 75 81 92 97 94 91 91 92 89 83 82 98 100 99 98 98 97 94 81 78
38 49 35 33 44 47 46 52 50 53 52 54 61 69 69 67 78 79 76 80 81 85 90 95 97 100 100 100 99 100 99 95 90 92 90 90 83 91 99 96 92 93 93 89
Wind_Speed
3 3 2 1 2 2 3 2 5 1 4 2 2 4 13 18 16 15 14 15 15 16 15 18 21 20 18 18 19 22 19 16 13 9 9 8 8 7 9 11 9 8 8 8
4 6 2 4 2 1 1 3 3 2 3 2 3 7 10 15 20 19 17 16 16 15 14 16 21 23 24 22 22 23 18 14 16 12 10 6 5 6 7 9 9 8 8 9
8 3 8 5 3 3 2 4 4 3 1 3 5 2 5 12 13 14 17 17 17 17 16 15 17 23 23 24 25 20 23 19 20 17 12 9 7 6 6 9 8 7 6 7
3 4 5 3 2 5 5 1 2 1 3 4 7 4 3 8 15 17 17 18 19 19 16 15 16 19 23 27 22 21 29 19 19 19 15 13 8 6 6 7 9 6 6 5
8 7 4 2 1 6 4 5 6 3 2 2 4 1 1 2 8 16 18 18 18 18 18 16 17 22 23 21 23 24 25 29 20 21 19 14 13 9 5 6 9 11 7 7
4 0 2 1 3 2 12 4 4 3 1 2 5 4 2 3 3 4 12 15 16 17 17 14 16 17 20 19 19 21 21 28 23 21 21 20 17 11 8 8 9 10 9 8
4 8 0 3 3 4 4 1 2 3 3 4 4 3 4 4 5 4 3 8 12 14 13 13 13 17 18 21 21 22 21 23 27 20 20 20 19 15 14 11 10 10 9 10
11 9 9 6 5 3 3 2 2 2 5 5 2 3 2 1 2 5 8 8 4 6 7 11 13 19 21 21 21 22 22 26 26 22 20 21 19 14 12 12 11 10 10 9
7 5 2 3 4 3 5 4 2 3 2 2 3 3 6 4 8 9 7 7 8 7 8 11 13 17 19 20 22 23 22 24 23 21 19 20 17 17 14 14 12 9 9 8
6 5 1 4 5 8 2 10 3 0 1 2 1 4 3 1 2 4 6 7 5 3 7 9 10 16 19 21 19 18 20 24 25 20 18 18 20 18 16 13 13 12 10 10
6 1 4 3 6 9 5 4 4 4 2 2 2 3 5 5 3 5 6 3 3 4 6 8 8 13 14 16 19 20 19 20 22 22 23 18 17 17 17 16 15 14 11 12
5 1 2 2 4 2 1 6 6 4 4 1 2 2 6 7 7 6 7 5 2 4 5 6 8 12 15 17 18 20 18 19 20 21 21 21 19 19 18 18 18 18 17 16
9 4 2 4 4 4 3 4 3 5 3 5 2 0 4 8 9 8 5 4 2 3 4 5 4 8 11 13 17 20 20 21 20 20 21 20 20 20 20 18 16 17 18 17
12 5 7 7 3 5 5 5 6 6 5 7 4 2 5 14 13 12 10 7 3 0 1 4 4 6 10 13 17 19 19 19 19 20 20 21 21 20 19 15 16 17 18 19
10 10 5 3 2 2 5 10 11 9 3 4 4 3 7 10 10 9 8 6 5 3 1 2 4 6 10 13 15 17 18 18 20 22 22 21 19 17 16 17 18 19 18 19
4 7 7 4 3 2 3 2 8 4 7 5 6 3 3 5 5 8 7 7 9 6 1 3 6 8 12 16 18 18 18 20 20 19 18 15 15 14 14 11 10 13 18 17
10 8 6 6 3 5 4 3 5 4 5 9 6 6 4 8 12 11 9 8 10 9 8 7 7 8 12 12 12 14 13 10 10 10 12 15 16 14 12 5 3 14 20 18
7 8 1 4 6 6 3 1 4 11 4 5 14 10 7 8 7 7 7 8 9 9 9 10 11 13 12 5 4 3 4 7 12 13 15 15 18 18 18 25 33 20 26 27
4 6 4 5 5 3 3 8 8 4 5 5 10 9 8 6 2 6 6 6 7 9 10 11 12 11 11 10 7 9 11 11 12 13 12 8 2 11 16 21 23 19 22 23
4 4 4 4 5 7 6 16 5 8 7 8 7 9 10 3 3 2 5 7 9 11 11 12 13 14 15 12 12 15 14 13 10 5 3 9 16 20 19 19 21 24 25 27
4 3 5 5 3 1 5 11 9 5 6 15 11 8 9 4 2 5 4 8 10 11 13 12 14 15 13 12 13 14 11 8 4 4 4 6 10 14 17 18 20 26 26 26
6 7 4 3 4 4 12 11 10 5 12 15 11 9 7 6 6 6 7 8 10 10 10 10 11 12 10 8 9 10 9 6 6 6 5 7 8 9 16 18 23 26 25 26
5 3 7 5 4 2 15 3 4 16 17 10 12 9 9 8 6 7 8 8 8 9 8 8 9 10 10 10 9 10 7 5 4 4 6 7 9 13 17 22 17 15 26 21
2 1 4 6 3 6 8 5 15 15 13 12 9 10 8 8 9 9 9 8 10 12 11 11 13 14 11 9 7 6 6 6 2 0 4 6 7 10 15 16 19 25 27 22
1 9 8 5 5 9 6 11 16 13 14 13 10 9 7 9 10 10 10 9 10 11 11 9 9 8 8 8 9 8 6 7 5 4 9 11 9 11 12 13 14 16 19 20
6 8 7 6 17 4 14 13 16 17 14 13 12 10 8 11 12 12 10 10 10 11 10 10 10 11 11 12 12 12 10 8 9 15 20 17 14 10 7 7 10 9 9 9
Wind_Direction
55 220 225 327 240 38 144 359 315 120 163 140 166 197 201 189 204 210 215 210 216 229 236 233 228 225 219 216 210 211 207 214 210 199 206 226 229 230 221 227 239 246 248 248
144 238 145 106 179 214 109 318 0 107 155 262 219 284 202 197 208 214 218 224 227 226 223 225 220 221 220 215 213 211 203 205 220 221 212 209 199 208 211 223 231 243 244 260
200 128 144 156 170 265 322 298 24 331 344 119 330 116 178 215 226 231 236 239 240 236 230 222 219 216 216 215 211 197 200 225 217 220 212 219 233 227 216 228 232 242 233 241
202 153 199 190 203 222 317 34 172 0 355 355 349 21 198 210 224 229 235 234 237 233 228 223 211 209 210 216 212 195 205 205 208 216 210 206 212 228 242 240 236 240 219 243
185 170 175 242 348 192 27 103 108 110 77 303 50 291 30 212 228 229 231 237 235 232 227 221 210 205 209 207 205 201 204 212 210 213 218 216 219 233 244 228 220 236 225 243
144 249 193 222 95 206 146 121 89 82 352 38 16 324 109 197 209 211 227 228 227 226 224 221 219 205 206 203 202 201 203 211 216 219 225 229 233 220 214 218 209 211 219 217
208 222 179 175 241 104 179 265 321 333 6 25 4 279 297 254 227 252 262 240 234 227 222 216 209 202 201 198 197 200 205 209 216 223 222 229 235 233 239 225 221 200 199 204
199 213 217 178 219 192 158 218 246 338 3 330 25 321 113 214 227 272 255 256 261 220 216 213 206 205 202 197 197 198 200 206 212 219 222 227 228 233 243 240 223 211 209 207
169 236 151 179 140 201 144 192 73 111 110 249 331 279 251 235 239 226 211 215 236 234 230 218 206 205 206 201 199 202 199 203 208 213 222 220 226 233 235 235 225 218 214 208
180 209 105 115 131 58 254 138 159 174 282 348 36 292 321 21 194 198 216 212 219 227 198 203 198 201 204 207 206 207 210 207 209 209 211 219 224 233 235 224 216 218 213 205
162 217 121 199 198 187 148 173 68 110 333 293 339 5 210 285 339 247 238 227 215 222 199 198 192 196 203 207 206 207 208 212 220 221 221 220 218 219 217 215 216 213 209 213
179 125 236 246 88 342 249 155 178 245 182 268 326 295 17 343 342 329 324 324 276 216 220 212 194 184 191 202 211 214 214 215 220 220 216 216 214 211 213 214 213 214 209 205
172 209 230 158 145 119 219 136 129 113 129 185 232 233 2 4 26 19 350 341 323 225 205 216 208 201 205 209 210 211 213 214 216 214 211 210 212 210 215 220 217 215 208 207
166 160 202 216 191 141 160 166 183 216 190 162 227 309 337 350 353 357 6 349 332 203 165 208 208 213 213 212 215 217 218 211 211 212 212 210 209 210 215 217 220 220 213 208
185 213 189 241 265 196 149 160 180 202 164 218 134 203 340 340 332 347 352 28 59 63 69 235 230 225 221 218 224 227 224 214 208 206 207 209 207 205 205 212 215 217 215 215
195 205 173 211 163 188 126 112 164 182 153 104 143 109 353 356 73 57 37 55 62 61 89 234 235 233 228 223 223 226 224 218 208 206 207 201 188 181 185 197 210 223 217 215
174 157 169 199 153 151 154 164 188 141 175 162 171 133 127 90 71 58 57 59 58 47 41 26 349 306 281 262 243 235 236 227 209 185 164 170 173 138 114 96 255 264 232 220
152 143 111 146 154 204 42 271 147 112 103 166 125 136 126 104 99 75 46 43 39 23 20 16 6 357 352 320 268 237 191 171 152 141 141 152 145 151 175 229 245 228 227 218
232 140 109 156 177 105 107 162 164 152 141 148 139 151 151 136 153 94 54 42 36 23 15 14 19 30 46 57 77 95 95 106 122 140 150 151 179 288 286 266 250 225 210 212
117 89 138 153 152 187 189 175 175 144 152 191 192 193 196 190 186 102 50 50 50 43 35 31 39 49 57 64 87 92 90 91 84 82 318 297 290 297 290 279 245 222 210 203
131 69 139 153 120 214 203 158 156 202 163 175 186 167 162 192 38 107 71 56 52 44 44 50 57 62 68 82 93 88 84 71 43 6 332 328 331 326 314 292 254 227 211 192
155 149 153 121 123 192 153 137 191 150 139 158 171 173 163 133 138 109 84 64 48 47 52 58 66 66 71 88 92 83 69 48 51 45 54 45 21 358 350 328 275 225 197 187
196 193 165 208 164 88 167 159 157 157 149 160 163 163 151 147 141 118 92 73 70 72 75 67 70 70 64 70 69 69 53 54 86 83 61 54 34 25 22 20 28 220 195 175
143 210 120 159 155 172 167 148 148 155 149 150 154 151 162 146 136 109 90 83 85 86 87 84 84 87 77 54 46 51 32 18 341 0 10 1 15 16 28 30 46 71 78 82
121 157 131 80 100 114 142 158 146 140 138 133 135 151 153 133 113 106 99 97 94 88 82 80 80 67 45 36 32 26 15 3 1 27 39 47 47 46 59 56 59 74 92 111
192 157 179 186 179 152 164 158 153 140 143 148 141 125 105 124 118 117 114 107 99 88 78 73 68 60 47 47 45 40 41 35 67 77 78 64 70 68 62 84 78 84 119 155